When you browse on this site, cookies collect data to enhance your experience and personalize the content and advertising you see.
Visit our Privacy Policy to learn more. By continuing to use the site, you agree to this use of cookies and data.
  • In Austria
  • List of Countries
  • For 7 days
  • Water Temperature
  • Satellite Maps
  • Weather Map
  • News
  • Weather Widgets
  • user-avatar
    Login

    Hourly Weather Salta

    Today, 27 June, Thursday

    Time Temperature Precipitation Wind Pressure Humidity
    00:00 +7°C° 0 mm 1 mps 647 mmHg 60%
    01:00 +7°C° 0 mm 1 mps 647 mmHg 60%
    02:00 +6°C° 0 mm 1 mps 647 mmHg 60%
    03:00 +6°C° 0 mm 1 mps 646 mmHg 59%
    04:00 +6°C° 0 mm 1 mps 646 mmHg 59%
    05:00 +6°C° 0 mm 1 mps 645 mmHg 58%
    06:00 +7°C° 0 mm 1 mps 646 mmHg 55%
    07:00 +8°C° 0 mm 1 mps 646 mmHg 52%
    08:00 +9°C° 0 mm 1 mps 647 mmHg 50%
    09:00 +12°C° 0 mm 1 mps 647 mmHg 43%
    10:00 +15°C° 0 mm 1 mps 648 mmHg 36%
    11:00 +18°C° 0 mm 2 mps 649 mmHg 29%
    12:00 +19°C° 0 mm 2 mps 648 mmHg 27%
    13:00 +20°C° 0 mm 2 mps 648 mmHg 26%
    14:00 +21°C° 0 mm 2 mps 647 mmHg 24%
    15:00 +20°C° 0 mm 2 mps 646 mmHg 28%
    16:00 +18°C° 0 mm 2 mps 646 mmHg 33%
    17:00 +17°C° 0 mm 2 mps 645 mmHg 37%
    18:00 +15°C° 0 mm 2 mps 645 mmHg 41%
    19:00 +13°C° 0 mm 1 mps 645 mmHg 44%
    20:00 +11°C° 0 mm 1 mps 645 mmHg 48%
    21:00 +11°C° 0 mm 1 mps 645 mmHg 48%
    22:00 +10°C° 0 mm 1 mps 645 mmHg 49%
    23:00 +9°C° 0 mm 2 mps 646 mmHg 49%

    Tomorrow, 28 June, Friday

    Time Temperature Precipitation Wind Pressure Humidity
    00:00 +9°C° 0 mm 2 mps 645 mmHg 47%
    01:00 +10°C° 0 mm 2 mps 645 mmHg 45%
    02:00 +10°C° 0 mm 2 mps 645 mmHg 42%
    03:00 +10°C° 0 mm 2 mps 645 mmHg 38%
    04:00 +10°C° 0 mm 2 mps 645 mmHg 34%
    05:00 +12°C° 0 mm 2 mps 644 mmHg 30%
    06:00 +13°C° 0 mm 2 mps 645 mmHg 29%
    07:00 +14°C° 0 mm 2 mps 646 mmHg 27%
    08:00 +14°C° 0 mm 2 mps 646 mmHg 25%
    09:00 +18°C° 0 mm 2 mps 647 mmHg 22%
    10:00 +23°C° 0 mm 2 mps 648 mmHg 18%
    11:00 +27°C° 0 mm 2 mps 649 mmHg 14%
    12:00 +28°C° 0 mm 2 mps 649 mmHg 13%
    13:00 +29°C° 0 mm 3 mps 649 mmHg 12%
    14:00 +30°C° 0 mm 3 mps 649 mmHg 11%
    15:00 +29°C° 0 mm 3 mps 648 mmHg 13%
    16:00 +27°C° 0 mm 3 mps 648 mmHg 16%
    17:00 +25°C° 0 mm 2 mps 648 mmHg 18%
    18:00 +23°C° 0 mm 2 mps 648 mmHg 21%
    19:00 +20°C° 0 mm 2 mps 648 mmHg 24%
    20:00 +18°C° 0 mm 2 mps 648 mmHg 27%
    21:00 +17°C° 0 mm 2 mps 648 mmHg 29%
    22:00 +16°C° 0 mm 2 mps 648 mmHg 32%
    23:00 +15°C° 0 mm 2 mps 648 mmHg 35%

    Day after tomorrow, 29 June, Saturday

    Time Temperature Precipitation Wind Pressure Humidity
    00:00 +15°C° 0 mm 2 mps 648 mmHg 35%
    01:00 +14°C° 0 mm 2 mps 648 mmHg 35%
    02:00 +14°C° 0 mm 2 mps 648 mmHg 34%
    03:00 +14°C° 0 mm 1 mps 648 mmHg 34%
    04:00 +13°C° 0 mm 1 mps 648 mmHg 34%
    05:00 +13°C° 0 mm 1 mps 648 mmHg 34%
    06:00 +13°C° 0 mm 1 mps 648 mmHg 34%
    07:00 +14°C° 0 mm 1 mps 648 mmHg 34%
    08:00 +14°C° 0 mm 1 mps 649 mmHg 35%
    09:00 +18°C° 0 mm 1 mps 649 mmHg 31%
    10:00 +21°C° 0 mm 1 mps 650 mmHg 26%
    11:00 +24°C° 0 mm 1 mps 651 mmHg 22%
    12:00 +25°C° 0 mm 1 mps 650 mmHg 21%
    13:00 +26°C° 0 mm 1 mps 650 mmHg 20%
    14:00 +27°C° 0 mm 1 mps 650 mmHg 19%
    15:00 +26°C° 0 mm 1 mps 649 mmHg 24%
    16:00 +24°C° 0 mm 1 mps 649 mmHg 29%
    17:00 +23°C° 0 mm 1 mps 649 mmHg 34%
    18:00 +20°C° 0 mm 1 mps 649 mmHg 43%
    19:00 +18°C° 0 mm 1 mps 649 mmHg 51%
    20:00 +14°C° 0 mm 1 mps 649 mmHg 59%
    21:00 +13°C° 0 mm 1 mps 649 mmHg 63%
    22:00 +13°C° 0 mm 1 mps 649 mmHg 67%
    23:00 +12°C° 0 mm 1 mps 650 mmHg 71%

    30 June, Sunday

    Time Temperature Precipitation Wind Pressure Humidity
    00:00 +12°C° 0 mm 1 mps 650 mmHg 73%
    01:00 +11°C° 0 mm 1 mps 649 mmHg 76%
    02:00 +11°C° 0 mm 1 mps 649 mmHg 78%
    03:00 +11°C° 0 mm 1 mps 649 mmHg 79%
    04:00 +11°C° 0 mm 1 mps 649 mmHg 81%
    05:00 +11°C° 0 mm 1 mps 649 mmHg 82%
    06:00 +11°C° 0 mm 1 mps 650 mmHg 82%
    07:00 +11°C° 0 mm 1 mps 650 mmHg 81%
    08:00 +11°C° 0 mm 1 mps 651 mmHg 80%
    09:00 +12°C° 0 mm 1 mps 651 mmHg 76%
    10:00 +13°C° 0 mm 1 mps 651 mmHg 71%
    11:00 +14°C° 0 mm 1 mps 651 mmHg 67%
    12:00 +14°C° 0 mm 1 mps 651 mmHg 66%
    13:00 +15°C° 0 mm 2 mps 650 mmHg 65%
    14:00 +15°C° 0 mm 2 mps 649 mmHg 64%
    15:00 +14°C° 0 mm 2 mps 649 mmHg 66%
    16:00 +14°C° 0 mm 2 mps 649 mmHg 69%
    17:00 +13°C° 0 mm 2 mps 649 mmHg 71%
    18:00 +12°C° 0 mm 2 mps 650 mmHg 74%
    19:00 +12°C° 0 mm 1 mps 650 mmHg 76%
    20:00 +11°C° 0 mm 1 mps 651 mmHg 79%
    21:00 +11°C° 0 mm 1 mps 651 mmHg 79%
    22:00 +11°C° 0 mm 1 mps 651 mmHg 80%
    23:00 +10°C° 0 mm 1 mps 652 mmHg 80%

    1 July, Monday

    Time Temperature Precipitation Wind Pressure Humidity
    00:00 +10°C° 0 mm 1 mps 652 mmHg 80%
    01:00 +10°C° 0 mm 1 mps 652 mmHg 81%
    02:00 +9°C° 0 mm 1 mps 652 mmHg 81%
    03:00 +9°C° 0 mm 1 mps 651 mmHg 81%
    04:00 +9°C° 0 mm 1 mps 651 mmHg 81%
    05:00 +9°C° 0 mm 1 mps 651 mmHg 81%
    06:00 +9°C° 0 mm 1 mps 652 mmHg 80%
    07:00 +9°C° 0 mm 1 mps 653 mmHg 79%
    08:00 +9°C° 0 mm 1 mps 653 mmHg 79%
    09:00 +10°C° 0 mm 1 mps 653 mmHg 75%
    10:00 +11°C° 0 mm 1 mps 653 mmHg 71%
    11:00 +12°C° 0 mm 1 mps 653 mmHg 67%
    12:00 +12°C° 0 mm 2 mps 652 mmHg 66%
    13:00 +13°C° 0 mm 2 mps 652 mmHg 64%
    14:00 +13°C° 0 mm 2 mps 651 mmHg 62%
    15:00 +13°C° 0 mm 2 mps 650 mmHg 64%
    16:00 +13°C° 0 mm 2 mps 650 mmHg 67%
    17:00 +12°C° 0 mm 2 mps 650 mmHg 69%
    18:00 +11°C° 0 mm 1 mps 650 mmHg 72%
    19:00 +11°C° 0 mm 1 mps 650 mmHg 74%
    20:00 +10°C° 0 mm 1 mps 650 mmHg 77%
    21:00 +10°C° 0 mm 1 mps 650 mmHg 80%
    22:00 +9°C° 0 mm 1 mps 650 mmHg 82%
    23:00 +9°C° 0 mm 1 mps 650 mmHg 85%

    2 July, Tuesday

    Time Temperature Precipitation Wind Pressure Humidity
    00:00 +8°C° 0 mm 1 mps 649 mmHg 85%
    01:00 +8°C° 0 mm 1 mps 649 mmHg 85%
    02:00 +8°C° 0 mm 1 mps 649 mmHg 84%
    03:00 +8°C° 0 mm 1 mps 648 mmHg 83%
    04:00 +8°C° 0 mm 1 mps 648 mmHg 82%
    05:00 +8°C° 0 mm 1 mps 648 mmHg 81%
    06:00 +9°C° 0 mm 1 mps 649 mmHg 78%
    07:00 +9°C° 0 mm 1 mps 649 mmHg 76%
    08:00 +10°C° 0 mm 1 mps 649 mmHg 73%
    09:00 +13°C° 0 mm 1 mps 650 mmHg 63%
    10:00 +15°C° 0 mm 1 mps 650 mmHg 54%
    11:00 +19°C° 0 mm 1 mps 651 mmHg 45%
    12:00 +20°C° 0 mm 1 mps 650 mmHg 42%
    13:00 +20°C° 0 mm 2 mps 649 mmHg 40%
    14:00 +21°C° 0 mm 2 mps 649 mmHg 38%
    15:00 +19°C° 0 mm 2 mps 648 mmHg 42%
    16:00 +18°C° 0 mm 2 mps 648 mmHg 46%
    17:00 +17°C° 0 mm 2 mps 647 mmHg 50%
    18:00 +15°C° 0 mm 2 mps 647 mmHg 58%
    19:00 +13°C° 0 mm 1 mps 646 mmHg 66%
    20:00 +10°C° 0 mm 1 mps 646 mmHg 74%
    21:00 +10°C° 0 mm 1 mps 646 mmHg 77%
    22:00 +10°C° 0 mm 1 mps 645 mmHg 79%
    23:00 +9°C° 0 mm 1 mps 645 mmHg 82%
    Show more